Simultaneous Nadir Overpasses (SNOs) Predictions

Prediction of SNOs between METOP-A and TERRA Satellite Orbit:

Table of predicted SNOs for the next 14.0 days since TLE Epoch: 10/11/2014
Index Date (METOP-A) Time (METOP-A) Lat,Lon (METOP-A) SZA (METOP-A ) Date (TERRA) Time (TERRA) Lat,Lon (TERRA) SZA (TERRA ) Distance(km) Time Diff (sec)
1 10/12/2014 07:17:20 -81.29, -62.58 88.26 10/12/2014 07:18:22 -81.28, -62.77 88.26 3.29 62
2 10/12/2014 08:08:01 81.29, 104.86 91.77 10/12/2014 08:07:48 81.29, 104.98 91.78 2.13 13
3 10/15/2014 02:51:42 -81.28, 3.44 87.25 10/15/2014 02:52:37 -81.28, 3.57 87.21 2.26 55
4 10/15/2014 03:42:22 81.29, 171.23 92.83 10/15/2014 03:42:03 81.28, 171.29 92.82 1.20 19
5 10/17/2014 22:26:02 -81.29, 70.19 86.16 10/17/2014 22:26:51 -81.28, 70.04 86.16 2.72 49
6 10/17/2014 23:16:42 81.29,-122.05 93.91 10/17/2014 23:16:16 81.30,-121.90 93.92 2.79 26
7 10/20/2014 18:00:22 -81.29, 136.51 85.15 10/20/2014 18:01:03 -81.29, 136.62 85.12 1.92 41
8 10/20/2014 18:51:02 81.29, -55.77 94.92 10/20/2014 18:50:29 81.29, -55.72 94.90 0.85 33
9 10/23/2014 13:34:43 -81.28,-157.22 84.17 10/23/2014 13:35:16 -81.28,-157.05 84.13 2.85 33




NCC Satellite Simultaneous Nadir Overpasses (SNOs) Prediction Service
